When you browse on this site, cookies collect data to enhance your experience and personalize the content and advertising you see.
Visit our Privacy Policy to learn more. By continuing to use the site, you agree to this use of cookies and data.
  • In Czech Republic
  • List of Countries
  • For 7 days
  • Water Temperature
  • Satellite Maps
  • Weather Map
  • Weather Widgets
  • user-avatar
    Login

    Hourly Weather Polyanica

    Today, 11 December, Tuesday

    Time Temperature Precipitation Wind Pressure Humidity
    00:00 -2°C° 0 mm 2 mps 708 mmHg 90%
    01:00 -2°C° 0 mm 2 mps 709 mmHg 90%
    02:00 -3°C° 0 mm 2 mps 709 mmHg 90%
    03:00 -3°C° 0 mm 2 mps 709 mmHg 90%
    04:00 -3°C° 0 mm 2 mps 709 mmHg 90%
    05:00 -3°C° 0 mm 2 mps 709 mmHg 89%
    06:00 -1°C° 0 mm 1 mps 709 mmHg 90%
    07:00 -1°C° 0 mm 1 mps 709 mmHg 90%
    08:00 -1°C° 0 mm 1 mps 710 mmHg 90%
    09:00 0°C° 0 mm 1 mps 710 mmHg 86%
    10:00 0°C° 0 mm 1 mps 710 mmHg 82%
    11:00 +1°C° 0 mm 1 mps 710 mmHg 78%
    12:00 +1°C° 0 mm 1 mps 710 mmHg 75%
    13:00 +1°C° 0 mm 2 mps 710 mmHg 73%
    14:00 +1°C° 0 mm 2 mps 710 mmHg 70%
    15:00 -1°C° 0 mm 2 mps 710 mmHg 75%
    16:00 -2°C° 0 mm 2 mps 711 mmHg 79%
    17:00 -3°C° 0 mm 2 mps 711 mmHg 84%
    18:00 -3°C° 0 mm 2 mps 711 mmHg 85%
    19:00 -3°C° 0 mm 2 mps 711 mmHg 86%
    20:00 -3°C° 0 mm 2 mps 711 mmHg 87%
    21:00 -3°C° 0 mm 2 mps 711 mmHg 88%
    22:00 -3°C° 0 mm 2 mps 711 mmHg 88%
    23:00 -4°C° 0 mm 2 mps 711 mmHg 89%

    Tomorrow, 12 December, Wednesday

    Time Temperature Precipitation Wind Pressure Humidity
    00:00 -1°C° 0 mm 1 mps 711 mmHg 88%
    01:00 -1°C° 0 mm 1 mps 711 mmHg 88%
    02:00 -1°C° 0 mm 1 mps 712 mmHg 87%
    03:00 -1°C° 0.1 mm 1 mps 711 mmHg 87%
    04:00 -1°C° 0.1 mm 1 mps 711 mmHg 87%
    05:00 -1°C° 0.1 mm 1 mps 711 mmHg 87%
    06:00 -1°C° 0.1 mm 1 mps 712 mmHg 87%
    07:00 -2°C° 0.1 mm 0 mps 712 mmHg 88%
    08:00 -2°C° 0.1 mm 0 mps 712 mmHg 88%
    09:00 -1°C° 0 mm 0 mps 712 mmHg 85%
    10:00 -1°C° 0 mm 0 mps 713 mmHg 82%
    11:00 0°C° 0 mm 0 mps 713 mmHg 79%
    12:00 +1°C° 0 mm 1 mps 713 mmHg 78%
    13:00 +1°C° 0 mm 1 mps 713 mmHg 78%
    14:00 -1°C° 0 mm 2 mps 713 mmHg 78%
    15:00 -1°C° 0.1 mm 2 mps 713 mmHg 82%
    16:00 -2°C° 0.1 mm 2 mps 713 mmHg 86%
    17:00 -3°C° 0.1 mm 2 mps 713 mmHg 90%
    18:00 -3°C° 0 mm 2 mps 713 mmHg 90%
    19:00 -3°C° 0 mm 2 mps 713 mmHg 89%
    20:00 -3°C° 0 mm 2 mps 713 mmHg 89%
    21:00 -4°C° 0 mm 2 mps 713 mmHg 89%
    22:00 -5°C° 0 mm 3 mps 714 mmHg 88%
    23:00 -5°C° 0 mm 3 mps 714 mmHg 88%

    Day after tomorrow, 13 December, Thursday

    Time Temperature Precipitation Wind Pressure Humidity
    00:00 -5°C° 0.1 mm 3 mps 714 mmHg 88%
    01:00 -5°C° 0.1 mm 3 mps 713 mmHg 89%
    02:00 -5°C° 0.1 mm 3 mps 713 mmHg 89%
    03:00 -5°C° 0.2 mm 3 mps 713 mmHg 90%
    04:00 -5°C° 0.2 mm 3 mps 713 mmHg 90%
    05:00 -5°C° 0.2 mm 3 mps 713 mmHg 90%
    06:00 -4°C° 0.3 mm 3 mps 713 mmHg 91%
    07:00 -4°C° 0.3 mm 3 mps 713 mmHg 91%
    08:00 -4°C° 0.3 mm 3 mps 713 mmHg 91%
    09:00 -4°C° 0.3 mm 3 mps 713 mmHg 91%
    10:00 -4°C° 0.3 mm 3 mps 713 mmHg 90%
    11:00 -4°C° 0.3 mm 3 mps 713 mmHg 89%
    12:00 -4°C° 0.2 mm 3 mps 713 mmHg 89%
    13:00 -2°C° 0.2 mm 3 mps 713 mmHg 89%
    14:00 -2°C° 0.2 mm 3 mps 713 mmHg 89%
    15:00 -4°C° 0.3 mm 3 mps 713 mmHg 91%
    16:00 -3°C° 0.3 mm 2 mps 713 mmHg 92%
    17:00 -3°C° 0.3 mm 2 mps 713 mmHg 94%
    18:00 -3°C° 0.2 mm 2 mps 713 mmHg 94%
    19:00 -3°C° 0.2 mm 2 mps 713 mmHg 95%
    20:00 -3°C° 0.2 mm 2 mps 713 mmHg 95%
    21:00 -3°C° 0.2 mm 2 mps 714 mmHg 95%
    22:00 -3°C° 0.2 mm 2 mps 714 mmHg 95%
    23:00 -3°C° 0.2 mm 2 mps 714 mmHg 95%

    14 December, Friday

    Time Temperature Precipitation Wind Pressure Humidity
    00:00 -1°C° 0.1 mm 1 mps 714 mmHg 95%
    01:00 -1°C° 0.1 mm 1 mps 714 mmHg 95%
    02:00 -1°C° 0.1 mm 1 mps 715 mmHg 95%
    03:00 -1°C° 0.1 mm 1 mps 715 mmHg 95%
    04:00 -2°C° 0.1 mm 1 mps 715 mmHg 96%
    05:00 -2°C° 0.1 mm 1 mps 715 mmHg 96%
    06:00 -2°C° 0.1 mm 1 mps 715 mmHg 96%
    07:00 -2°C° 0.1 mm 1 mps 715 mmHg 96%
    08:00 -2°C° 0.1 mm 1 mps 715 mmHg 96%
    09:00 -1°C° 0.1 mm 1 mps 716 mmHg 94%
    10:00 -1°C° 0.1 mm 1 mps 716 mmHg 93%
    11:00 0°C° 0.1 mm 1 mps 717 mmHg 91%
    12:00 0°C° 0.1 mm 1 mps 717 mmHg 91%
    13:00 0°C° 0.1 mm 1 mps 717 mmHg 90%
    14:00 -2°C° 0.1 mm 2 mps 717 mmHg 90%
    15:00 0°C° 0.1 mm 1 mps 717 mmHg 92%
    16:00 -1°C° 0.1 mm 1 mps 717 mmHg 94%
    17:00 -1°C° 0.1 mm 1 mps 718 mmHg 96%
    18:00 -1°C° 0.1 mm 1 mps 718 mmHg 96%
    19:00 -2°C° 0.1 mm 1 mps 718 mmHg 96%
    20:00 -2°C° 0.1 mm 1 mps 719 mmHg 96%
    21:00 -2°C° 0 mm 1 mps 719 mmHg 96%
    22:00 -3°C° 0 mm 0 mps 719 mmHg 96%
    23:00 -4°C° 0 mm 0 mps 719 mmHg 96%

    15 December, Saturday

    Time Temperature Precipitation Wind Pressure Humidity
    00:00 -4°C° 0 mm 0 mps 720 mmHg 95%
    01:00 -4°C° 0 mm 0 mps 720 mmHg 95%
    02:00 -5°C° 0 mm 0 mps 720 mmHg 95%
    03:00 -5°C° 0 mm 0 mps 720 mmHg 95%
    04:00 -5°C° 0 mm 0 mps 720 mmHg 95%
    05:00 -6°C° 0 mm 0 mps 720 mmHg 95%
    06:00 -6°C° 0 mm 0 mps 720 mmHg 95%
    07:00 -6°C° 0 mm 0 mps 720 mmHg 95%
    08:00 -6°C° 0 mm 0 mps 721 mmHg 95%
    09:00 -5°C° 0 mm 0 mps 721 mmHg 92%
    10:00 -4°C° 0 mm 0 mps 721 mmHg 90%
    11:00 -3°C° 0 mm 0 mps 722 mmHg 87%
    12:00 -3°C° 0 mm 0 mps 721 mmHg 86%
    13:00 -3°C° 0 mm 0 mps 721 mmHg 85%
    14:00 -1°C° 0 mm 1 mps 721 mmHg 84%
    15:00 -2°C° 0 mm 1 mps 721 mmHg 86%
    16:00 -2°C° 0 mm 1 mps 721 mmHg 89%
    17:00 -3°C° 0 mm 1 mps 721 mmHg 91%
    18:00 -3°C° 0 mm 1 mps 721 mmHg 92%
    19:00 -4°C° 0 mm 1 mps 722 mmHg 93%
    20:00 -4°C° 0 mm 1 mps 722 mmHg 95%
    21:00 -4°C° 0 mm 1 mps 722 mmHg 94%
    22:00 -4°C° 0 mm 1 mps 722 mmHg 94%
    23:00 -6°C° 0 mm 0 mps 722 mmHg 94%

    16 December, Sunday

    Time Temperature Precipitation Wind Pressure Humidity
    00:00 -6°C° 0 mm 0 mps 721 mmHg 94%
    01:00 -6°C° 0 mm 1 mps 721 mmHg 94%
    02:00 -6°C° 0 mm 1 mps 721 mmHg 95%
    03:00 -6°C° 0 mm 1 mps 721 mmHg 94%
    04:00 -6°C° 0 mm 1 mps 721 mmHg 94%
    05:00 -6°C° 0 mm 1 mps 721 mmHg 94%
    06:00 -6°C° 0 mm 1 mps 721 mmHg 94%
    07:00 -6°C° 0 mm 1 mps 721 mmHg 94%
    08:00 -6°C° 0 mm 1 mps 721 mmHg 94%
    09:00 -6°C° 0 mm 1 mps 721 mmHg 92%
    10:00 -4°C° 0 mm 1 mps 721 mmHg 90%
    11:00 -3°C° 0 mm 1 mps 721 mmHg 88%
    12:00 -3°C° 0 mm 1 mps 721 mmHg 87%
    13:00 -2°C° 0 mm 1 mps 721 mmHg 86%
    14:00 -2°C° 0 mm 1 mps 721 mmHg 85%
    15:00 -2°C° 0 mm 1 mps 721 mmHg 87%
    16:00 -3°C° 0 mm 1 mps 721 mmHg 89%
    17:00 -4°C° 0 mm 1 mps 721 mmHg 92%
    18:00 -4°C° 0 mm 1 mps 721 mmHg 93%
    19:00 -6°C° 0 mm 1 mps 721 mmHg 94%
    20:00 -6°C° 0 mm 1 mps 721 mmHg 95%
    21:00 -6°C° 0 mm 1 mps 721 mmHg 95%
    22:00 -7°C° 0 mm 1 mps 721 mmHg 94%
    23:00 -7°C° 0 mm 1 mps 721 mmHg 94%
    Show more